Regional Weather Roundup
Issued by NWS

Current Version | Previous Version | Text Only | Print | Product List | Glossary Off
Versions: 1 2 3 4 5 6 7 8 9 10 11 12 13 14 15 16 17 18 19 20 21 22 23 24 25 26 27 28

000
ASUS42 KFFC 210703
RWRGA
WEATHER ROUNDUP FOR GEORGIA
NATIONAL WEATHER SERVICE PEACHTREE CITY GA
300 AM EDT MON APR 21 2014

NOTE: "FAIR" INDICATES FEW OR NO CLOUDS BELOW 12,000 FEET WITH NO
SIGNIFICANT WEATHER AND/OR OBSTRUCTIONS TO VISIBILITY.

* = USE WITH CAUTION. THE STATIONS MARKED WITH AN ASTERISK MAY NOT
REPORT WEATHER SUCH AS PRECIPITATION, FOG, OR THUNDER AND ARE NOT
QUALITY CONTROLLED BY NWS.

THE REMARK "TC" DENOTES TEMPERATURE READING IN DEGREES CELSIUS.

GAZ001>058-210800-
NORTH GEORGIA

CITY           SKY/WX    TMP DP  RH WIND       PRES   REMARKS
ATLANTA        PTCLDY    57  40  52 E3        30.16F
ATHENS         CLEAR     47  42  83 CALM      30.16F
CHAMBLEE       CLEAR     48  42  80 CALM      30.16F
PEACHTREE CITY CLEAR     46  44  93 CALM      30.16F
ROME           CLEAR     50  48  93 CALM      30.15F
WEST ATLANTA   CLEAR     50  46  86 CALM      30.16F
GAINESVILLE    CLEAR     51  38  60 CALM      30.18F
CARTERSVILLE   CLEAR     46  43  89 CALM      30.16F


CITY           SKY/WX    TMP DP  RH WIND       PRES   REMARKS
DALTON*        CLEAR     48  46  93 CALM      30.16F
MARIETTA       CLEAR     51  45  78 N1        30.16F
$$

GAZ059>098-102>109-210800-
CENTRAL GEORGIA

CITY           SKY/WX    TMP DP  RH WIND       PRES   REMARKS
AUGUSTA-BUSH   CLEAR     50  44  80 CALM      30.14S
AUGUSTA-DANIEL CLEAR     55  43  63 N8        30.15R
COLUMBUS       CLEAR     53  48  83 CALM      30.14F
MACON          CLEAR     48  47  96 CALM      30.14F
ROBINS AFB     CLEAR     51  49  95 CALM      30.14F


CITY           SKY/WX    TMP DP  RH WIND       PRES   REMARKS
LAGRANGE*      CLEAR     47  47  98 CALM      30.15S FOG
SYLVANIA*      CLEAR     58  48  70 N3        30.12S
MILLEDGEVILLE* CLEAR     50  50 100 CALM      30.15S
$$

GAZ099>101-110>166-210800-
SOUTH GEORGIA

CITY           SKY/WX    TMP DP  RH WIND       PRES   REMARKS
SAVANNAH       MOCLDY    57  49  74 N3        30.08F
VALDOSTA       PTCLDY    53  49  86 CALM      30.10F FOG
ALMA           CLEAR     54  50  86 CALM      30.10F
ST SIMONS      CLEAR     56  52  86 CALM      30.08F
FT STEWART     CLEAR     54  52  94 CALM      30.08F
ALBANY         CLEAR     50  49  96 CALM      30.15F
HUNTER AFB     PTCLDY    58  51  75 VRB1      30.06F
MOODY AFB      CLEAR     50  50 100 N1        30.09F FOG
BRUNSWICK      CLEAR     55  54  94 NW3       30.09F


CITY           SKY/WX    TMP DP  RH WIND       PRES   REMARKS
BAINBRIDGE*    CLEAR     54  54 100 CALM      30.13S FOG
MOULTRIE*      CLEAR     54  54 100 CALM      30.12F
VIDALIA*       CLEAR     55  50  82 N5        30.12S
DOUGLAS*       CLEAR     55  54  94 CALM      30.12F
$$



USA.gov is the U.S. government's official web portal to all federal, state and local government web resources and services.